User: anonymous   Login
Location: Vancouver
(49.2500°N, 123.1330°W)
Time: 05:42:25
(UTC-07:00)
Language:

Cosmos 1340 Rocket - Orbit

View from above orbital plane
View from above orbital plane
View from above satellite
View from above satellite

Ground track
Ground track

The orbit data is extracted from the following two-line orbital elements,

1 13068U 82013B   15181.18501544  .00000632  00000-0  41676-4 0  9995
2 13068 081.2035 321.6107 0022706 162.2326 197.9696 15.05887115815392
Epoch (UTC): 30 June 2015 04:26:25
Eccentricity: 0.0022706
inclination: 81.2035°
perigee height: 533 km
apogee height: 564 km
right ascension of ascending node: 321.6107°
argument of perigee: 162.2326°
revolutions per day: 15.05887115
mean anomaly at epoch: 197.9696°
orbit number at epoch: 81539

The dashed part of the orbit path shows where the satellite is in the earth's shadow,  

DLR